OBJECT P, 54695

Orbit data source: Space-Track

You're viewing an Uncataloged Satellite

Recently launched and/or uncataloged satellites may have evolving metadata. Metadata may include but not limited to: Owner, Maufacturer, Bus, Motor, and Mission.

OBJECT P, 54695 is a satellite owned by Changguang WJ (CN) in SSO that was launched on Fri, 09 Dec 2022 UTC via a JIELONG-3 launch vehicle from the Yellow Sea Launch Area, China (YSLA). Unknown objects in Earth's orbit typically refer to objects detected orbiting the Earth but have not yet been identified or cataloged. These objects could be anything from previously untracked satellites, spent rocket stages, debris from satellite collisions, or even natural meteoroids temporarily captured by Earth's gravity.

Loading next visibility...
Identifier
54695, 2022-167P
Orbit
SSO
Country
Flag of CNCN / PRC
Related business
Manufacturer
Changguang WJ
Mission
Operational Commercial Imaging
Bus & Motor
JL-1, Unknown motor
Mass
42 kg wet, 42 kg dry
Launch date (UTC)
2022-12-09 (4 years ago)
Launch vehicle
JIELONG-3
Launch site
Yellow Sea Launch Area, China (YSLA)
Object type
Unknown
Shape & HBR
Box + 2 Pan, 0.8 m
Radar Cross Section
2.000 m², Medium (>0.1 m² and < 1m²)

Expand to show TLE details & history
Last TLE update: 22 hours ago

TLE from 22 hours ago
0 OBJECT P
1 54695U 22167P   26172.50118022  .00009590  00000-0  28196-3 0  9996
2 54695  97.6887 342.1993 0007664 102.2647 257.9454 15.35300729196054
Epoch: 2026-06-21T12:01Z
TLE epoch observation values (Epoch: 2026-06-21T12:01:41.971Z)
Latitude
-0.00001°
Longitude
-107.92612°
Altitude
464.229 km
Speed
7.634 km/s
True Right ascension
22h 48m 47s
True Declination
0° 00' 00"
Sunlit
Object was in daylight at epoch
Visualization orbit readout
Latitude
Unknown
Longitude
Unknown
Altitude
Unknown
Speed
Unknown
Apparent Right ascension
Unknown
Apparent Declination
Unknown
Sunlit
N/A
Visualization observer readout
Local Sidereal Time
21:32:29
Azimuth
Unknown
Elevation
Unknown
Doppler factor
Unknown
Orbital elements
Apogee altitude
462.224 km
Perigee altitude
451.747 km
Semi-major axis
6,835.122 km
Eccentricity
0.00077
Inclination
97.6887°
RAAN
342.1993°
Arg. of periapsis
102.2647°
True anomaly
257.85953°
Mean anomaly
257.9454°
Eccentric anomaly
257.90246°
Mean motion
3.84082 °/min
Orbital period
93.73 mins
BSTAR
0.00028196
Loading maneuver chart data...
Computing Atmospheric mass density...
Loading historical data...
Loading historical data...
Loading historical data...
Loading historical data...
Loading historical data...
Loading historical data...
Loading historical data...

Documentation

Showing up to 5 results
|